VLG20DM LEGR-LEBL

Flight info

Callsign VLG20DM
Flight time 0h 59m
Altitude 32000
Route VIBAS M985 YES N747 TOSTO M445 BEGOX N860 VLC L34 CASIM N608 MATEX
Aircraft A320/M-SDE3FGHIRWY/LB1

Departure

Time 2026-05-04 16:21
Airport F.G.L. Airport Granada-Jaén Airport (LEGR)

Arrival

Time 2026-05-04 17:21
Airport Josep Tarradellas Barcelona-El Prat Airport (LEBL)
Time Latitude Longitude Altitude Speed Heading
2026-05-04 15:56 37.18568 -3.77557 1871 ft 0 kts 268°
2026-05-04 16:16 37.18580 -3.77610 1870 ft 5 kts 322°
2026-05-04 16:17 37.18708 -3.77547 1862 ft 14 kts 82°
2026-05-04 16:18 37.18712 -3.77142 1865 ft 19 kts 86°
2026-05-04 16:18 37.18714 -3.76974 1865 ft 20 kts 89°
2026-05-04 16:19 37.18718 -3.76339 1857 ft 28 kts 90°
2026-05-04 16:19 37.18821 -3.76095 1850 ft 18 kts 330°
2026-05-04 16:20 37.18879 -3.77303 1865 ft 115 kts 269°
2026-05-04 16:20 37.18998 -3.79847 2374 ft 157 kts 296°
2026-05-04 16:21 37.22268 -3.79406 3939 ft 205 kts 30°
2026-05-04 16:22 37.24782 -3.76935 4950 ft 248 kts 34°
2026-05-04 16:22 37.29115 -3.72646 7175 ft 278 kts 36°
2026-05-04 16:23 37.33456 -3.67369 9132 ft 314 kts 50°
2026-05-04 16:24 37.39364 -3.57185 9993 ft 403 kts 52°
2026-05-04 16:25 37.42882 -3.51340 10645 ft 427 kts 51°
2026-05-04 16:26 37.50271 -3.39207 12824 ft 447 kts 51°
2026-05-04 16:26 37.56007 -3.29707 14280 ft 461 kts 51°
2026-05-04 16:27 37.59919 -3.23214 15215 ft 468 kts 51°
2026-05-04 16:28 37.65892 -3.13278 16551 ft 479 kts 51°
2026-05-04 16:28 37.71994 -3.03091 17787 ft 492 kts 51°
2026-05-04 16:29 37.80344 -2.89124 19419 ft 504 kts 52°
2026-05-04 16:30 37.86704 -2.78413 20536 ft 511 kts 52°
2026-05-04 16:31 37.90993 -2.71175 21193 ft 517 kts 52°
2026-05-04 16:31 37.97507 -2.60184 22050 ft 523 kts 52°
2026-05-04 16:32 38.04115 -2.48970 22969 ft 531 kts 52°
2026-05-04 16:33 38.08549 -2.41435 23558 ft 535 kts 52°
2026-05-04 16:33 38.13013 -2.33829 24076 ft 539 kts 52°
2026-05-04 16:34 38.17492 -2.26170 24779 ft 539 kts 52°
2026-05-04 16:34 38.19729 -2.22342 25154 ft 539 kts 52°
2026-05-04 16:35 38.26425 -2.10861 26335 ft 538 kts 52°
2026-05-04 16:35 38.33097 -1.99370 27545 ft 538 kts 52°
2026-05-04 16:36 38.35320 -1.95535 27980 ft 537 kts 52°
2026-05-04 16:36 38.39802 -1.87933 28849 ft 536 kts 50°
2026-05-04 16:37 38.44421 -1.80484 29763 ft 535 kts 49°
2026-05-04 16:37 38.46746 -1.76784 30175 ft 534 kts 49°
2026-05-04 16:37 38.51363 -1.69354 30891 ft 535 kts 50°
2026-05-04 16:38 38.55935 -1.61853 31603 ft 535 kts 50°
2026-05-04 16:39 38.62804 -1.50529 32735 ft 535 kts 50°
2026-05-04 16:39 38.67369 -1.43019 33483 ft 535 kts 50°
2026-05-04 16:40 38.71925 -1.35508 34253 ft 533 kts 50°
2026-05-04 16:40 38.76460 -1.28016 34977 ft 531 kts 50°
2026-05-04 16:41 38.80971 -1.20536 35724 ft 529 kts 50°
2026-05-04 16:41 38.87709 -1.09342 36709 ft 528 kts 49°
2026-05-04 16:42 38.94428 -0.98133 36911 ft 528 kts 50°
2026-05-04 16:43 38.98894 -0.90665 36923 ft 527 kts 50°
2026-05-04 16:43 39.05754 -0.79645 36913 ft 523 kts 40°
2026-05-04 16:44 39.17731 -0.69755 36911 ft 510 kts 22°
2026-05-04 16:45 39.23983 -0.65411 36921 ft 511 kts 23°
2026-05-04 16:46 39.39670 -0.54493 36910 ft 511 kts 23°
2026-05-04 16:47 39.52125 -0.45622 36911 ft 513 kts 27°
2026-05-04 16:48 39.63063 -0.36310 36937 ft 514 kts 30°
2026-05-04 16:49 39.75003 -0.26250 36932 ft 512 kts 28°
2026-05-04 16:50 39.87036 -0.16222 36935 ft 512 kts 29°
2026-05-04 16:51 39.95986 -0.08660 36943 ft 511 kts 29°
2026-05-04 16:52 40.07923 0.01415 36949 ft 511 kts 29°
2026-05-04 16:53 40.16860 0.08996 36939 ft 510 kts 30°
2026-05-04 16:53 40.26169 0.15445 36936 ft 500 kts 12°
2026-05-04 16:54 40.29505 0.16703 36937 ft 499 kts 11°
2026-05-04 16:55 40.49514 0.24601 35648 ft 506 kts 24°
2026-05-04 16:56 40.55057 0.30304 34466 ft 511 kts 50°
2026-05-04 16:56 40.59545 0.42869 32584 ft 511 kts 75°
2026-05-04 16:57 40.60601 0.47339 31949 ft 512 kts 75°
2026-05-04 16:57 40.62699 0.56315 30742 ft 514 kts 75°
2026-05-04 16:58 40.65872 0.69890 28790 ft 513 kts 75°
2026-05-04 16:58 40.66924 0.74377 28107 ft 513 kts 74°
2026-05-04 16:59 40.69021 0.83370 26770 ft 514 kts 75°
2026-05-04 17:00 40.73191 1.01474 24225 ft 518 kts 74°
2026-05-04 17:00 40.76334 1.15132 22293 ft 516 kts 74°
2026-05-04 17:01 40.78401 1.24138 21651 ft 510 kts 74°
2026-05-04 17:01 40.80437 1.33082 21492 ft 508 kts 74°
2026-05-04 17:02 40.82461 1.42017 21228 ft 506 kts 74°
2026-05-04 17:02 40.84460 1.50899 20834 ft 503 kts 74°
2026-05-04 17:03 40.85447 1.55291 20523 ft 491 kts 74°
2026-05-04 17:03 40.86406 1.59564 19853 ft 482 kts 74°
2026-05-04 17:03 40.87739 1.68085 18422 ft 467 kts 83°
2026-05-04 17:04 40.88638 1.76458 16887 ft 455 kts 83°
2026-05-04 17:04 40.89524 1.84691 15368 ft 444 kts 83°
2026-05-04 17:05 40.90356 1.92520 13935 ft 412 kts 84°
2026-05-04 17:05 40.91133 1.99912 12409 ft 405 kts 84°
2026-05-04 17:06 40.92345 2.06976 10984 ft 381 kts 63°
2026-05-04 17:06 40.93862 2.09737 10382 ft 365 kts 43°
2026-05-04 17:07 40.97912 2.13206 9443 ft 334 kts 28°
2026-05-04 17:07 40.99263 2.14218 9166 ft 324 kts 28°
2026-05-04 17:07 41.01788 2.16113 8688 ft 307 kts 28°
2026-05-04 17:07 41.03611 2.17482 8313 ft 296 kts 28°
2026-05-04 17:08 41.05389 2.18780 7940 ft 287 kts 27°
2026-05-04 17:08 41.08822 2.21214 7170 ft 273 kts 27°
2026-05-04 17:08 41.10484 2.22383 6783 ft 268 kts 27°
2026-05-04 17:09 41.12118 2.23535 6533 ft 257 kts 27°
2026-05-04 17:09 41.13669 2.24629 6302 ft 256 kts 27°
2026-05-04 17:09 41.15234 2.25735 6033 ft 254 kts 28°
2026-05-04 17:10 41.18352 2.27944 5474 ft 251 kts 28°
2026-05-04 17:10 41.22952 2.31204 4477 ft 253 kts 29°
2026-05-04 17:11 41.24510 2.32313 4059 ft 254 kts 30°
2026-05-04 17:11 41.26049 2.33412 3657 ft 248 kts 30°
2026-05-04 17:11 41.29011 2.35525 3005 ft 231 kts 30°
2026-05-04 17:12 41.30363 2.36511 2999 ft 216 kts 35°
2026-05-04 17:12 41.32476 2.39037 3000 ft 195 kts 55°
2026-05-04 17:13 41.34326 2.43694 2998 ft 188 kts 68°
2026-05-04 17:14 41.37090 2.46937 2999 ft 198 kts 356°
2026-05-04 17:14 41.38423 2.46471 2997 ft 199 kts 336°
2026-05-04 17:14 41.40379 2.43962 2997 ft 198 kts 295°
2026-05-04 17:15 41.40774 2.42227 3005 ft 197 kts 274°
2026-05-04 17:15 41.40235 2.38795 2802 ft 189 kts 243°
2026-05-04 17:16 41.39149 2.35584 2490 ft 191 kts 243°
2026-05-04 17:16 41.37532 2.30813 2326 ft 187 kts 243°
2026-05-04 17:17 41.36991 2.29219 2310 ft 187 kts 244°
2026-05-04 17:17 41.35420 2.24595 2213 ft 174 kts 243°
2026-05-04 17:18 41.34920 2.23124 2030 ft 170 kts 242°
2026-05-04 17:18 41.34109 2.20743 1681 ft 169 kts 243°
2026-05-04 17:19 41.33136 2.17887 1233 ft 169 kts 243°
2026-05-04 17:19 41.32237 2.15251 825 ft 147 kts 244°
2026-05-04 17:20 41.31408 2.12823 464 ft 142 kts 245°
2026-05-04 17:20 41.30598 2.10449 88 ft 141 kts 245°
2026-05-04 17:20 41.30216 2.09331 18 ft 118 kts 244°
2026-05-04 17:21 41.29858 2.08344 23 ft 32 kts 232°
2026-05-04 17:21 41.29660 2.08200 17 ft 0 kts 165°
2026-05-04 17:22 41.29658 2.08199 17 ft 1 kts 185°
2026-05-04 17:22 41.29638 2.08177 17 ft 7 kts 226°
2026-05-04 17:23 41.29562 2.07976 16 ft 10 kts 256°
2026-05-04 17:23 41.29503 2.07948 16 ft 12 kts 158°
2026-05-04 17:23 41.29338 2.08047 18 ft 11 kts 155°
2026-05-04 17:24 41.29262 2.08082 19 ft 12 kts 159°
2026-05-04 17:24 41.29207 2.08115 20 ft 0 kts 155°